DW9936 Weather Reports


time (UTC)temp
F
wind
direction
speed
knots
gust
knots
rain 1hr
in
rain 24hr
in
rain mn
in
humidity
%
barometer
mb
20260508030035 46 333 0.0 0.0 0.00 0.00 0.00 84 1016.4
20260508024534 47 333 0.0 0.0 0.00 0.00 0.00 84 1016.4
20260508023033 47 333 0.0 0.0 0.00 0.00 0.00 83 1016.4
20260508021530 47 333 0.0 0.0 0.00 0.00 0.00 81 1016.2
20260508020027 48 333 0.0 0.9 0.00 0.00 0.00 81 1016.1
20260508014525 49 333 0.0 0.0 0.00 0.00 0.00 80 1016.2
20260508013026 49 333 0.0 0.0 0.00 0.00 0.00 79 1016.2
20260508011524 50 333 0.0 0.0 0.00 0.00 0.00 79 1015.8
20260508010026 50 315 0.0 0.0 0.00 0.00 0.00 78 1015.8
20260508004531 50 323 0.0 0.0 0.00 0.00 0.00 79 1015.8
20260508003018 50 324 0.0 0.0 0.00 0.00 0.00 77 1015.9
20260508001515 51 324 0.0 0.0 0.00 0.00 0.00 76 1015.8
20260508000012 52 324 0.0 0.0 0.00 0.00 0.00 74 1015.8
20260507234515 53 324 0.0 0.0 0.00 0.00 0.00 73 1015.9
20260507233012 54 324 0.0 0.0 0.00 0.00 0.00 72 1016.0
20260507231503 54 324 0.0 0.0 0.00 0.00 0.00 70 1016.0
20260507230104 55 331 0.0 0.0 0.00 0.00 0.00 69 1015.9
20260507224558 56 331 0.0 0.0 0.00 0.00 0.00 68 1015.8
20260507223055 57 331 0.0 0.0 0.00 0.00 0.00 68 1015.6
20260507221558 57 331 0.0 0.0 0.00 0.00 0.00 66 1015.5
20260507220052 58 332 0.0 0.9 0.00 0.00 0.00 66 1015.4
20260507214550 58 344 0.0 0.0 0.00 0.00 0.00 66 1015.3
20260507213047 58 334 0.0 0.0 0.00 0.00 0.00 66 1015.2
20260507211556 58 327 0.0 0.0 0.00 0.00 0.00 66 1015.0
20260507210048 59 316 0.0 0.0 0.00 0.00 0.00 65 1014.9
20260507204543 59 240 0.0 0.0 0.00 0.00 0.00 66 1014.8
20260507203042 60 242 0.0 0.0 0.00 0.00 0.00 65 1014.6
20260507201540 60 350 0.0 2.6 0.00 0.00 0.00 64 1014.4
20260507200041 61 197 0.0 5.2 0.00 0.00 0.00 62 1014.3
20260507194539 61 285 0.0 0.9 0.00 0.00 0.00 60 1014.1
20260507193035 62 175 0.0 0.9 0.00 0.00 0.00 60 1013.9
20260507191533 62 228 0.0 2.6 0.00 0.00 0.00 58 1013.6
20260507190036 63 182 0.0 1.7 0.00 0.00 0.00 55 1013.4
20260507184529 63 319 0.0 5.2 0.00 0.00 0.00 54 1013.3
20260507183031 64 194 0.0 2.6 0.00 0.00 0.00 53 1013.1
20260507181526 64 246 0.0 1.7 0.00 0.00 0.00 52 1012.9
20260507180024 65 195 0.0 2.6 0.00 0.00 0.00 51 1012.6
20260507174541 66 226 0.0 2.6 0.00 0.00 0.00 48 1012.4
20260507173025 66 317 0.0 1.7 0.00 0.00 0.00 48 1012.2
20260507171530 66 333 0.0 1.7 0.00 0.00 0.00 47 1012.0
20260507170025 67 324 0.9 4.3 0.00 0.00 0.00 47 1011.8
20260507164524 67 171 0.0 2.6 0.00 0.00 0.00 46 1011.6
20260507163023 68 331 0.9 4.3 0.00 0.00 0.00 45 1011.6
20260507161521 68 182 0.9 4.3 0.00 0.00 0.00 44 1011.5
20260507160020 68 159 0.0 5.2 0.00 0.00 0.00 43 1011.5
20260507154521 68 360 0.0 4.3 0.00 0.00 0.00 43 1011.5
20260507153024 69 30 0.0 3.5 0.00 0.00 0.00 42 1011.4
20260507151518 69 300 0.0 4.3 0.00 0.00 0.00 41 1011.2
20260507150018 70 300 0.0 3.5 0.00 0.00 0.00 41 1011.2
20260507144519 71 342 0.0 4.3 0.00 0.00 0.00 39 1011.1
20260507143018 73 281 0.0 7.8 0.00 0.00 0.00 37 1011.0
20260507141516 74 140 0.0 2.6 0.00 0.00 0.00 36 1010.8
20260507140032 74 315 0.9 7.8 0.00 0.00 0.00 36 1010.8
20260507134516 74 139 1.7 7.8 0.00 0.00 0.00 36 1010.9
20260507133015 73 355 0.9 7.8 0.00 0.00 0.00 37 1011.0
20260507131522 72 318 1.7 7.0 0.00 0.00 0.00 38 1011.2
20260507130014 73 191 0.9 7.8 0.00 0.00 0.00 39 1011.2
20260507124517 75 316 0.9 5.2 0.00 0.00 0.00 36 1011.2
20260507123010 74 38 0.0 8.7 0.00 0.00 0.00 36 1011.2
20260507121509 74 136 0.0 2.6 0.00 0.00 0.00 38 1011.4
20260507120008 72 278 0.0 4.3 0.00 0.00 0.00 37 1011.4
20260507114505 72 140 0.0 9.6 0.00 0.00 0.00 38 1011.7
20260507113005 72 182 0.0 7.0 0.00 0.00 0.00 41 1011.7
20260507111501 71 200 0.9 5.2 0.00 0.00 0.00 41 1011.9
20260507110059 70 20 1.7 7.8 0.00 0.00 0.00 43 1011.9
20260507104606 69 208 0.0 7.8 0.00 0.00 0.00 47 1012.1
20260507103054 68 192 0.9 7.8 0.00 0.00 0.00 46 1012.2
20260507101555 69 23 0.0 3.5 0.00 0.00 0.00 47 1012.1
20260507100056 68 328 0.0 3.5 0.00 0.00 0.00 50 1012.3
20260507094550 67 236 0.9 2.6 0.00 0.00 0.00 49 1012.3
20260507093048 66 214 0.9 3.5 0.00 0.00 0.00 51 1012.3
20260507091549 66 254 0.0 3.5 0.00 0.00 0.00 50 1012.2
20260507090046 66 253 0.0 4.3 0.00 0.00 0.00 49 1012.1
20260507084555 66 219 0.9 4.3 0.00 0.00 0.00 48 1012.0
20260507083042 67 360 0.0 3.5 0.00 0.00 0.00 52 1011.9
20260507081539 65 192 0.0 5.2 0.00 0.00 0.00 53 1011.9
20260507080036 64 321 0.0 2.6 0.00 0.00 0.00 55 1011.8
20260507074535 63 336 0.0 4.3 0.00 0.00 0.00 56 1011.7
20260507073033 63 191 0.0 2.6 0.00 0.00 0.00 57 1011.7
20260507071536 62 178 0.0 6.1 0.00 0.00 0.00 58 1011.6
20260507070030 62 313 0.0 2.6 0.00 0.00 0.00 58 1011.5
20260507064533 62 345 0.0 4.3 0.00 0.00 0.00 59 1011.5
20260507063029 61 239 0.0 3.5 0.00 0.00 0.00 61 1011.4
20260507061535 60 216 0.0 3.5 0.00 0.00 0.00 62 1011.4
20260507060035 60 252 0.0 5.2 0.00 0.00 0.00 65 1011.3
20260507054535 58 241 0.0 2.6 0.00 0.00 0.00 68 1011.2
20260507053022 57 336 0.0 1.7 0.00 0.00 0.00 71 1011.0
20260507051519 57 310 0.0 2.6 0.00 0.00 0.00 71 1011.0
20260507050036 57 275 0.0 0.0 0.00 0.00 0.00 73 1010.8
20260507044520 56 219 0.0 0.9 0.00 0.00 0.00 74 1010.7
20260507043010 56 214 0.0 1.7 0.00 0.00 0.00 74 1010.5
20260507041508 56 281 0.0 0.9 0.00 0.00 0.00 74 1010.2
20260507040006 56 277 0.0 0.0 0.00 0.00 0.00 74 1010.1
20260507034505 57 219 0.0 0.9 0.00 0.00 0.00 73 1010.0
20260507033001 57 232 0.0 2.6 0.00 0.00 0.00 73 1009.9
20260507031558 57 107 0.0 2.6 0.00 0.00 0.00 72 1009.7